{"data":{"norad_id":68419,"intl_designator":"2026-067D","name":"FEMTO-1","alt_names":[],"object_type":"PAYLOAD","status":"ACTIVE","operator":null,"country":"BUL","launch_date":"2026-03-30","launch_site_code":"AFWTR","launch_vehicle":null,"mission":null,"orbit_class":"UNKNOWN","rcs_meters":null,"size_class":null,"mass_kg":null,"dimensions":null,"purposes":[],"wikipedia_slug":null,"has_3d_model":false,"image_url":null,"decayed_at":null,"tle_current":{"epoch":"2026-05-24T20:25:32.043648Z","epoch_age_seconds":81192,"freshness":"FRESH","line1":"1 68419U 26067D   26144.85106532  .00002583  00000+0  12765-3 0  9997","line2":"2 68419  97.4528 103.7073 0002295  42.5378 317.6033 15.18744408  8400","mean_motion":15.18744408,"eccentricity":0.0002295,"inclination_deg":97.4528,"raan_deg":103.7073,"arg_perigee_deg":42.5378,"mean_anomaly_deg":317.6033,"bstar":0.00012765,"rev_number":840,"period_min":94.815163921907,"perigee_km":508.05347617688,"apogee_km":511.21496316671,"semimajor_km":6887.7712196718,"source":"CELESTRAK","updated_at":"2026-05-25T13:38:07.811134Z"}}}